Location: Caltech
(34.1382°N, 118.1253°W)
Time: 19:34:49
(UTC-07:00)

Cosmos 2219 Rocket - Visible Passes

Search period start: 28 July 2014 00:00
Search period end: 07 August 2014 00:00
Orbit: 830 x 845 km, 71.0° (Epoch: 28 July)

Date Brightness Start Highest point End Pass type
(mag) Time Alt. Az. Time Alt. Az. Time Alt. Az.
28 Jul 3.6 00:00:28 10° NW 00:03:39 31° NW 00:03:39 31° NW visible
28 Jul 3.8 22:01:20 10° NNE 22:05:21 20° ENE 22:06:01 19° ENE visible
28 Jul 3.4 23:44:10 10° NNW 23:47:44 36° WNW 23:47:44 36° WNW visible
29 Jul 3.8 21:45:15 10° NNE 21:49:03 18° ENE 21:50:08 17° ENE visible
29 Jul 3.1 23:27:52 10° NNW 23:31:52 42° WNW 23:31:52 42° WNW visible
30 Jul 3.9 21:29:11 10° NNE 21:32:45 17° ENE 21:34:17 15° ENE visible
30 Jul 2.8 23:11:35 10° NNW 23:16:01 50° WNW 23:16:01 50° WNW visible
31 Jul 4.0 21:13:08 10° NNE 21:16:26 16° NE 21:18:28 13° E visible
31 Jul 2.5 22:55:18 10° NNW 23:00:12 60° WNW 23:00:12 60° WNW visible
01 Aug 4.1 20:57:08 10° NNE 21:00:08 15° NE 21:02:42 11° E visible
01 Aug 2.3 22:39:02 10° NNW 22:44:26 70° W 22:44:26 70° W visible
02 Aug 4.1 20:41:10 10° NNE 20:43:49 13° NE 20:46:28 10° E visible
02 Aug 2.1 22:22:46 10° NNW 22:28:22 77° WSW 22:28:43 74° SW visible
03 Aug 4.2 20:25:17 10° NNE 20:27:30 12° NE 20:29:44 10° ENE visible
03 Aug 2.1 22:06:31 10° NNW 22:12:08 83° WSW 22:13:02 64° S visible
04 Aug 2.1 21:50:15 10° NNW 21:55:53 90° WSW 21:57:24 51° SSE visible
05 Aug 2.1 21:34:01 10° NNW 21:39:39 83° ENE 21:41:49 39° SSE visible
06 Aug 2.1 21:17:46 10° NNW 21:23:24 77° ENE 21:26:18 30° SSE visible
06 Aug 4.7 23:05:21 10° W 23:06:34 11° W 23:07:47 10° WSW visible
